Location: Newark
(50.4348°N, 30.5552°E)
Time: 20:51:02
(UTC+00:00)

Tiros 1 despin weight - Pass Details

Date: 29 January 2020
Orbit: 594 x 642 km, 48.2° (Epoch: 22 February)

Event Time Altitude Azimuth Distance (km) Brightness Sun altitude
Rises 14:11:01 0° 276° (W) 2,908 ? 3.7°
Reaches altitude 10° 14:14:25 10° 250° (WSW) 2,007 ? 3.3°
Maximum altitude 14:16:39 13° 221° (SW) 1,790 ? 3.0°
Drops below altitude 10° 14:18:53 10° 192° (SSW) 2,013 ? 2.7°
Sets 14:22:19 0° 166° (SSE) 2,924 ? 2.2°
